Weather History for Audubon, IA

Change the Weather History Date:

Saturday, February 15, 2014

  Actual Average Record
Temperature  
Mean Temperature 22 °F -  
Max Temperature 41 °F 32 °F 62 °F (1954)
Min Temperature 3 °F 13 °F -12 °F (1958)
Degree Days  
Heating Degree Days 43    
Moisture  
Dew Point 16 °F    
Average Humidity 72    
Maximum Humidity 80    
Minimum Humidity 65    
Precipitation  
Precipitation 0.08 in - - ()
Sea Level Pressure  
Sea Level Pressure 29.91 in    
Wind  
Wind Speed 7 mph (SW)    
Max Wind Speed 22 mph    
Max Gust Speed 33 mph    
Visibility 9 miles    
Events Snow    
Averages and records for this station are not official NWS values.
T = Trace of Precipitation, MM = Missing Value Source: NWS Daily Summary

Daily Weather History Graph

Daily Weather History Graph

Search for Another Location

Airport:

Trip Planner

Search our weather history database for the weather conditions in past years. The results will help you decide how hot, cold, wet, or windy it might be!

Date:

Astronomy

Feb. 15, 2014 Rise Set
Actual Time 7:15 AM CST 5:53 PM CST
Civil Twilight 6:46 AM CST 6:21 PM CST
Nautical Twilight 6:14 AM CST 6:54 PM CST
Astronomical Twilight 5:41 AM CST 7:26 PM CST
Moon 6:55 PM CST (2/15) 7:13 AM CST (2/15)
Length of Visible Light 11h 35m
Length of Day
10h 38m
Waxing Gibbous, 99% of the Moon is Illuminated
Feb 15
Waxing Gibbous
Feb 22
Last Quarter
Mar 1
New
Mar 8
First Quarter
Mar 16
Full

Hourly Weather History & Observations

Time (CST) Temp. Windchill Dew Point Humidity Pressure Visibility Wind Dir Wind Speed Gust Speed Precip Events Conditions
12:15 AM 3.2 °F - -2.2 °F 78% 30.03 in 10.0 mi Calm Calm - N/A   Clear
12:35 AM 3.2 °F - -2.2 °F 78% 30.03 in 10.0 mi Calm Calm - N/A   Clear
12:55 AM 5.0 °F - -0.4 °F 78% 30.04 in 10.0 mi Calm Calm - N/A   Clear
1:15 AM 5.0 °F - -0.4 °F 78% 30.04 in 10.0 mi Calm Calm - N/A   Clear
1:35 AM 6.8 °F - -0.4 °F 72% 30.03 in 10.0 mi Calm Calm - N/A   Clear
1:55 AM 6.8 °F - -0.4 °F 72% 30.03 in 10.0 mi Calm Calm - N/A   Clear
2:15 AM 6.8 °F - 1.4 °F 79% 30.03 in 10.0 mi Calm Calm - N/A   Clear
2:35 AM 6.8 °F - 1.4 °F 79% 30.02 in 10.0 mi Calm Calm - N/A   Clear
2:55 AM 8.6 °F - 1.4 °F 73% 30.01 in 10.0 mi Calm Calm - N/A   Clear
3:15 AM 8.6 °F - 1.4 °F 73% 30.00 in 10.0 mi Calm Calm - N/A   Clear
3:35 AM 8.6 °F - 3.2 °F 79% 29.99 in 10.0 mi Calm Calm - N/A   Clear
3:55 AM 10.4 °F 0.8 °F 3.2 °F 73% 29.98 in 10.0 mi South 5.8 mph - N/A   Clear
4:15 AM 10.4 °F -1.5 °F 5.0 °F 79% 29.97 in 10.0 mi SSE 8.1 mph - N/A   Clear
4:35 AM 12.2 °F - 5.0 °F 73% 29.96 in 10.0 mi Calm Calm - N/A   Clear
4:55 AM 12.2 °F 6.1 °F 5.0 °F 73% 29.95 in 10.0 mi SE 3.5 mph - N/A   Clear
5:15 AM 12.2 °F 4.3 °F 6.8 °F 79% 29.94 in 10.0 mi South 4.6 mph - N/A   Clear
5:35 AM 14.0 °F 8.2 °F 6.8 °F 73% 29.94 in 10.0 mi SSE 3.5 mph - N/A   Clear
5:55 AM 14.0 °F 5.1 °F 6.8 °F 73% 29.95 in 10.0 mi South 5.8 mph - N/A   Clear
6:15 AM 15.8 °F 7.2 °F 6.8 °F 68% 29.95 in 10.0 mi South 5.8 mph - N/A   Clear
6:35 AM 15.8 °F 8.6 °F 6.8 °F 68% 29.94 in 10.0 mi South 4.6 mph - N/A   Clear
6:55 AM 15.8 °F 6.1 °F 6.8 °F 68% 29.94 in 10.0 mi South 6.9 mph - N/A   Clear
7:15 AM 15.8 °F 5.1 °F 8.6 °F 73% 29.92 in 10.0 mi South 8.1 mph - N/A   Clear
7:35 AM 15.8 °F 3.4 °F 8.6 °F 73% 29.91 in 3.0 mi South 10.4 mph - N/A Snow Light Snow
7:55 AM 15.8 °F 4.2 °F 8.6 °F 73% 29.90 in 1.0 mi South 9.2 mph - N/A Snow Light Snow
8:15 AM 17.6 °F 5.7 °F 10.4 °F 73% 29.91 in 2.0 mi South 10.4 mph - N/A Snow Light Snow
8:35 AM 17.6 °F 5.7 °F 10.4 °F 73% 29.91 in 1.8 mi South 10.4 mph 16.1 mph N/A Snow Light Snow
8:55 AM 19.4 °F 7.9 °F 12.2 °F 74% 29.90 in 2.0 mi South 10.4 mph - N/A Snow Light Snow
9:15 AM 19.4 °F 6.6 °F 12.2 °F 74% 29.90 in 0.8 mi South 12.7 mph 17.3 mph N/A Snow Light Snow
9:35 AM 19.4 °F 4.5 °F 12.2 °F 74% 29.89 in 0.8 mi South 17.3 mph 21.9 mph N/A Snow Light Snow
9:55 AM 19.4 °F 6.0 °F 14.0 °F 80% 29.86 in 1.0 mi South 13.8 mph 18.4 mph N/A Snow Light Snow
10:15 AM 21.2 °F 9.5 °F 14.0 °F 74% 29.87 in 1.0 mi South 11.5 mph 19.6 mph N/A Snow Light Snow
10:35 AM 21.2 °F 8.3 °F 15.8 °F 80% 29.88 in 4.0 mi SSW 13.8 mph 17.3 mph N/A Snow Light Snow
10:55 AM 23.0 °F 10.1 °F 15.8 °F 74% 29.86 in 7.0 mi South 15.0 mph 21.9 mph N/A Snow Light Snow
11:15 AM 24.8 °F 12.9 °F 15.8 °F 69% 29.85 in 10.0 mi South 13.8 mph 21.9 mph N/A   Clear
11:35 AM 24.8 °F 11.5 °F 15.8 °F 69% 29.85 in 7.0 mi SSW 17.3 mph 21.9 mph N/A   Clear
11:55 AM 26.6 °F 12.4 °F 17.6 °F 69% 29.82 in 4.0 mi South 21.9 mph 27.6 mph N/A Snow Light Snow
12:15 PM 26.6 °F 13.8 °F 17.6 °F 69% 29.81 in 7.0 mi SSW 17.3 mph 26.5 mph N/A   Scattered Clouds
12:35 PM 28.4 °F 15.8 °F 19.4 °F 69% 29.80 in 7.0 mi SSW 18.4 mph 25.3 mph N/A   Scattered Clouds
12:55 PM 28.4 °F 18.0 °F 19.4 °F 69% 29.80 in 10.0 mi SSW 12.7 mph 21.9 mph N/A   Clear
1:15 PM 30.2 °F 17.8 °F 21.2 °F 69% 29.80 in 10.0 mi SSW 19.6 mph 24.2 mph N/A   Clear
1:35 PM 30.2 °F 19.8 °F 21.2 °F 69% 29.79 in 10.0 mi SSW 13.8 mph 21.9 mph N/A   Clear
1:55 PM 33.8 °F 24.3 °F 23.0 °F 65% 29.79 in 10.0 mi SSW 13.8 mph 20.7 mph N/A   Clear
2:15 PM 33.8 °F 24.8 °F 23.0 °F 65% 29.78 in 10.0 mi SW 12.7 mph 23.0 mph N/A   Clear
2:35 PM 33.8 °F 25.3 °F 24.8 °F 70% 29.77 in 10.0 mi SW 11.5 mph 19.6 mph N/A   Clear
2:55 PM 35.6 °F 27.5 °F 24.8 °F 65% 29.77 in 10.0 mi SSW 11.5 mph 17.3 mph 0.02 in   Clear
3:15 PM 35.6 °F 27.1 °F 24.8 °F 65% 29.76 in 10.0 mi SSW 12.7 mph 18.4 mph 0.02 in   Clear
3:35 PM 35.6 °F 28.6 °F 24.8 °F 65% 29.77 in 10.0 mi SSW 9.2 mph - 0.03 in   Clear
3:55 PM 37.4 °F 29.8 °F 26.6 °F 65% 29.76 in 10.0 mi SSW 11.5 mph - 0.05 in   Clear
4:15 PM 37.4 °F 30.8 °F 26.6 °F 65% 29.77 in 10.0 mi SSW 9.2 mph - N/A   Clear
4:35 PM 37.4 °F 31.4 °F 26.6 °F 65% 29.77 in 10.0 mi SSW 8.1 mph 17.3 mph 0.01 in   Clear
4:55 PM 37.4 °F 32.1 °F 26.6 °F 65% 29.79 in 10.0 mi SSW 6.9 mph - 0.01 in   Scattered Clouds
5:15 PM 37.4 °F 31.4 °F 28.4 °F 70% 29.80 in 10.0 mi SW 8.1 mph - N/A   Scattered Clouds
5:35 PM 37.4 °F 30.8 °F 28.4 °F 70% 29.82 in 10.0 mi WSW 9.2 mph - N/A   Mostly Cloudy
5:55 PM 39.2 °F 33.6 °F 30.2 °F 70% 29.84 in 10.0 mi WNW 8.1 mph - N/A   Mostly Cloudy
6:15 PM 41.0 °F 32.2 °F 30.2 °F 65% 29.86 in 10.0 mi NW 18.4 mph 26.5 mph N/A   Mostly Cloudy
6:35 PM 39.2 °F 30.8 °F 28.4 °F 65% 29.88 in 10.0 mi NW 15.0 mph 26.5 mph N/A   Scattered Clouds
6:55 PM 35.6 °F 24.8 °F 28.4 °F 75% 29.91 in 10.0 mi NNW 19.6 mph 27.6 mph N/A   Clear
7:15 PM 35.6 °F 26.2 °F 26.6 °F 70% 29.92 in 10.0 mi NNW 15.0 mph 28.8 mph N/A   Mostly Cloudy
7:35 PM 33.8 °F 22.5 °F 26.6 °F 75% 29.94 in 10.0 mi NW 19.6 mph 33.4 mph N/A   Scattered Clouds
7:55 PM 33.8 °F 24.3 °F 26.6 °F 75% 29.96 in 10.0 mi NW 13.8 mph 24.2 mph N/A   Mostly Cloudy
8:15 PM 33.8 °F 22.5 °F 26.6 °F 75% 29.96 in 10.0 mi NNW 19.6 mph 28.8 mph N/A   Overcast
8:35 PM 33.8 °F 22.2 °F 24.8 °F 70% 29.97 in 10.0 mi NNW 20.7 mph 28.8 mph N/A   Overcast
8:55 PM 32.0 °F 20.1 °F 24.8 °F 75% 29.98 in 10.0 mi NNW 19.6 mph 27.6 mph N/A   Mostly Cloudy
9:15 PM 32.0 °F 20.8 °F 24.8 °F 75% 29.98 in 10.0 mi NNW 17.3 mph 26.5 mph N/A   Mostly Cloudy
9:35 PM 32.0 °F 21.6 °F 24.8 °F 75% 29.99 in 10.0 mi North 15.0 mph 29.9 mph N/A   Mostly Cloudy
9:55 PM 30.2 °F 21.3 °F 24.8 °F 80% 30.01 in 10.0 mi NW 10.4 mph 20.7 mph N/A   Mostly Cloudy
10:15 PM 30.2 °F 19.3 °F 24.8 °F 80% 30.01 in 10.0 mi NNW 15.0 mph 20.7 mph N/A   Scattered Clouds
10:35 PM 30.2 °F 20.8 °F 24.8 °F 80% 30.02 in 10.0 mi NW 11.5 mph 18.4 mph N/A   Clear
10:55 PM 30.2 °F 20.2 °F 23.0 °F 75% 30.02 in 10.0 mi NW 12.7 mph 17.3 mph N/A   Clear
11:15 PM 30.2 °F 21.3 °F 23.0 °F 75% 30.02 in 10.0 mi NNW 10.4 mph 17.3 mph N/A   Clear
11:35 PM 30.2 °F 22.6 °F 23.0 °F 75% 30.03 in 10.0 mi NNW 8.1 mph - N/A   Clear
11:55 PM 28.4 °F 20.4 °F 23.0 °F 80% 30.03 in 10.0 mi NNW 8.1 mph - N/A   Scattered Clouds